Weather History for Pittsfield, IL

Change the Weather History Date:

Saturday, December 1, 2012

  Actual Average (KUIN) Record (KUIN)
Temperature  
Mean Temperature 51 °F 35 °F  
Max Temperature 66 °F 43 °F 67 °F (1913)
Min Temperature 36 °F 27 °F 7 °F (1985)
Degree Days  
Heating Degree Days 14 30  
Month to date heating degree days 30  
Since 1 July heating degree days 1130  
Cooling Degree Days 0 0  
Month to date cooling degree days 0  
Year to date cooling degree days 1094  
Growing Degree Days 1 (Base 50)    
Moisture  
Dew Point 49 °F    
Average Humidity 77    
Maximum Humidity 95    
Minimum Humidity 64    
Precipitation  
Precipitation 0.00 in 0.09 in 0.83 in (1985)
Month to date precipitation 0.09  
Year to date precipitation 35.17  
Sea Level Pressure  
Sea Level Pressure 29.99 in    
Wind  
Wind Speed 6 mph (SSE)    
Max Wind Speed 18 mph    
Max Gust Speed 23 mph    
Visibility 9 miles    
Events      
T = Trace of Precipitation, MM = Missing Value Source: NWS Daily Summary

Daily Weather History Graph

Daily Weather History Graph

Search for Another Location

Airport:

Trip Planner

Search our weather history database for the weather conditions in past years. The results will help you decide how hot, cold, wet, or windy it might be!

Date:

Astronomy

Dec. 01, 2012 Rise Set
Actual Time 7:05 AM CST 4:39 PM CST
Civil Twilight 6:35 AM CST 5:09 PM CST
Nautical Twilight 6:01 AM CST 5:42 PM CST
Astronomical Twilight 5:29 AM CST 6:15 PM CST
Moon 7:29 PM CST (12/1) 9:18 AM CST (12/1)
Length of Visible Light 10h 33m
Length of Day
9h 34m
Waning Gibbous, 91% of the Moon is Illuminated
Dec 1
Waning Gibbous
Dec 6
Last Quarter
Dec 13
New
Dec 19
First Quarter
Dec 28
Full

Hourly Weather History & Observations

Time (CST) Temp. Windchill Dew Point Humidity Pressure Visibility Wind Dir Wind Speed Gust Speed Precip Events Conditions
12:15 AM 42.6 °F - 37.4 °F 82% 30.08 in 10.0 mi Calm Calm - N/A   Clear
12:35 AM 36.5 °F 32.7 °F 32.5 °F 86% 30.07 in 10.0 mi SSE 4.6 mph - N/A   Clear
12:55 AM 39.2 °F - 35.6 °F 87% 30.08 in 10.0 mi Calm Calm - N/A   Clear
1:15 AM 40.3 °F 38.2 °F 36.3 °F 86% 30.08 in 10.0 mi South 3.5 mph - N/A   Clear
1:35 AM 41.9 °F - 37.4 °F 84% 30.09 in 10.0 mi Calm Calm - N/A   Clear
1:55 AM 42.3 °F - 38.5 °F 86% 30.09 in 10.0 mi Calm Calm - N/A   Clear
2:15 AM 40.5 °F 38.4 °F 36.1 °F 85% 30.09 in 10.0 mi SSW 3.5 mph - N/A   Clear
2:35 AM 40.6 °F 37.5 °F 36.9 °F 86% 30.09 in 10.0 mi South 4.6 mph - N/A   Clear
2:55 AM 41.4 °F 37.6 °F 37.2 °F 85% 30.09 in 10.0 mi South 5.8 mph - N/A   Clear
3:15 AM 42.1 °F 38.4 °F 38.3 °F 86% 30.08 in 10.0 mi South 5.8 mph - N/A   Clear
3:35 AM 44.6 °F 40.7 °F 39.2 °F 81% 30.08 in 10.0 mi South 6.9 mph - N/A   Clear
3:55 AM 43.3 °F 39.9 °F 39.4 °F 86% 30.08 in 10.0 mi South 5.8 mph - N/A   Clear
4:15 AM 43.7 °F 39.7 °F 39.9 °F 87% 30.08 in 7.0 mi South 6.9 mph - N/A   Clear
4:35 AM 44.6 °F 40.7 °F 40.6 °F 86% 30.08 in 10.0 mi South 6.9 mph - N/A   Clear
4:55 AM 46.0 °F 42.5 °F 41.9 °F 85% 30.08 in 10.0 mi South 6.9 mph - N/A   Clear
5:15 AM 46.6 °F - 42.6 °F 86% 30.07 in 10.0 mi South 6.9 mph - N/A   Clear
5:35 AM 47.1 °F - 43.2 °F 86% 30.07 in 10.0 mi South 8.1 mph - N/A   Clear
5:55 AM 46.6 °F - 43.2 °F 88% 30.07 in 7.0 mi South 8.1 mph - N/A   Clear
6:15 AM 46.4 °F 42.9 °F 43.3 °F 89% 30.06 in 7.0 mi South 6.9 mph - N/A   Clear
6:35 AM 45.1 °F 42.0 °F 42.8 °F 91% 30.07 in 5.0 mi South 5.8 mph - N/A   Clear
6:55 AM 44.1 °F 40.8 °F 42.3 °F 93% 30.06 in 5.0 mi SSE 5.8 mph - N/A   Clear
7:15 AM 45.0 °F 41.8 °F 43.2 °F 93% 30.05 in 3.0 mi SSE 5.8 mph - N/A   Clear
7:35 AM 44.8 °F 41.6 °F 43.3 °F 95% 30.05 in 2.0 mi SSE 5.8 mph - N/A   Clear
7:55 AM 47.3 °F - 45.5 °F 93% 30.05 in 3.0 mi SSE 6.9 mph - N/A   Clear
8:15 AM 49.1 °F - 47.1 °F 93% 30.05 in 4.0 mi SSE 5.8 mph - N/A   Clear
8:35 AM 51.3 °F - 48.6 °F 90% 30.05 in 5.0 mi SSE 8.1 mph - N/A   Clear
8:55 AM 53.1 °F - 49.8 °F 89% 30.04 in 5.0 mi SSE 9.2 mph - N/A   Clear
9:15 AM 54.7 °F - 50.4 °F 85% 30.04 in 7.0 mi South 9.2 mph - N/A   Clear
9:35 AM 56.7 °F - 51.1 °F 82% 30.04 in 7.0 mi South 10.4 mph - N/A   Clear
9:55 AM 58.3 °F - 51.6 °F 78% 30.04 in 7.0 mi South 10.4 mph - N/A   Clear
10:15 AM 59.4 °F - 51.8 °F 76% 30.03 in 10.0 mi South 12.7 mph - N/A   Mostly Cloudy
10:35 AM 60.4 °F - 52.0 °F 74% 30.03 in 10.0 mi South 13.8 mph 19.6 mph N/A   Mostly Cloudy
10:55 AM 60.8 °F - 52.0 °F 73% 30.02 in 10.0 mi SSE 15.0 mph - N/A   Overcast
11:15 AM 61.7 °F - 52.3 °F 71% 30.00 in 10.0 mi South 11.5 mph - N/A   Mostly Cloudy
11:35 AM 62.6 °F - 52.7 °F 70% 30.00 in 10.0 mi South 11.5 mph - N/A   Mostly Cloudy
11:55 AM 63.5 °F - 52.7 °F 68% 29.98 in 10.0 mi South 11.5 mph 16.1 mph N/A   Mostly Cloudy
12:15 PM 64.4 °F - 53.2 °F 67% 29.97 in 10.0 mi South 11.5 mph - N/A   Scattered Clouds
12:35 PM 64.9 °F - 53.2 °F 66% 29.96 in 10.0 mi South 11.5 mph - N/A   Clear
12:55 PM 65.8 °F - 53.6 °F 65% 29.96 in 10.0 mi South 12.7 mph - N/A   Mostly Cloudy
1:15 PM 65.8 °F - 53.6 °F 65% 29.96 in 10.0 mi South 10.4 mph - N/A   Overcast
1:35 PM 66.2 °F - 53.6 °F 64% 29.95 in 10.0 mi South 6.9 mph - N/A   Overcast
1:55 PM 66.2 °F - 53.6 °F 64% 29.94 in 10.0 mi SSE 8.1 mph - N/A   Overcast
2:15 PM 65.8 °F - 54.1 °F 66% 29.93 in 10.0 mi SE 8.1 mph - N/A   Scattered Clouds
2:35 PM 65.7 °F - 53.8 °F 65% 29.92 in 10.0 mi SE 10.4 mph - N/A   Clear
2:55 PM 64.9 °F - 53.4 °F 66% 29.91 in 10.0 mi SE 10.4 mph - N/A   Clear
3:15 PM 64.6 °F - 53.2 °F 67% 29.92 in 10.0 mi SSE 5.8 mph - N/A   Scattered Clouds
3:35 PM 64.4 °F - 53.2 °F 67% 29.92 in 7.0 mi South 4.6 mph - N/A   Overcast
3:55 PM 63.7 °F - 53.4 °F 69% 29.92 in 10.0 mi SSE 5.8 mph - N/A   Overcast
4:15 PM 63.7 °F - 53.6 °F 70% 29.92 in 7.0 mi South 4.6 mph - N/A   Overcast
4:35 PM 62.6 °F - 53.2 °F 71% 29.92 in 10.0 mi SE 3.5 mph - N/A   Overcast
4:55 PM 62.6 °F - 53.6 °F 72% 29.93 in 10.0 mi Calm Calm - N/A   Overcast
5:15 PM 62.2 °F - 53.2 °F 72% 29.93 in 10.0 mi East 3.5 mph - N/A   Overcast
5:35 PM 62.6 °F - 53.6 °F 72% 29.93 in 10.0 mi SSE 4.6 mph - N/A   Overcast
5:55 PM 62.2 °F - 53.6 °F 73% 29.92 in 7.0 mi SSE 4.6 mph - N/A   Overcast
6:15 PM 61.9 °F - 53.6 °F 74% 29.92 in 10.0 mi SSE 6.9 mph - N/A   Overcast
6:35 PM 63.5 °F - 53.8 °F 71% 29.92 in 10.0 mi South 10.4 mph - N/A   Overcast
6:55 PM 64.6 °F - 54.1 °F 69% 29.91 in 10.0 mi South 11.5 mph 17.3 mph N/A   Overcast
7:15 PM 64.9 °F - 54.1 °F 68% 29.91 in 10.0 mi South 11.5 mph - N/A   Overcast
7:35 PM 64.6 °F - 54.1 °F 69% 29.91 in 10.0 mi SSE 9.2 mph - N/A   Overcast
7:55 PM 64.0 °F - 53.8 °F 69% 29.91 in 10.0 mi SSE 12.7 mph - N/A   Mostly Cloudy
8:15 PM 64.0 °F - 53.8 °F 69% 29.91 in 10.0 mi SSE 12.7 mph - N/A   Overcast
8:35 PM 64.0 °F - 53.8 °F 69% 29.91 in 10.0 mi South 18.4 mph 23.0 mph N/A   Overcast
8:55 PM 63.7 °F - 53.6 °F 70% 29.91 in 10.0 mi South 18.4 mph 23.0 mph N/A   Mostly Cloudy
9:15 PM 63.5 °F - 53.6 °F 70% 29.91 in 10.0 mi South 15.0 mph - N/A   Mostly Cloudy
9:35 PM 62.8 °F - 53.2 °F 71% 29.91 in 10.0 mi South 15.0 mph 23.0 mph N/A   Mostly Cloudy
9:55 PM 62.8 °F - 53.2 °F 71% 29.91 in 10.0 mi South 16.1 mph - N/A   Mostly Cloudy
10:15 PM 62.6 °F - 53.2 °F 71% 29.91 in 10.0 mi South 17.3 mph 23.0 mph N/A   Overcast
10:35 PM 62.6 °F - 53.2 °F 71% 29.91 in 10.0 mi South 13.8 mph 19.6 mph N/A   Overcast
10:55 PM 62.6 °F - 53.6 °F 72% 29.91 in 10.0 mi South 16.1 mph 23.0 mph N/A   Overcast
11:15 PM 62.6 °F - 53.6 °F 72% 29.91 in 10.0 mi South 11.5 mph 17.3 mph N/A   Overcast
11:35 PM 62.6 °F - 53.6 °F 72% 29.91 in 10.0 mi South 13.8 mph 20.7 mph N/A   Overcast
11:55 PM 62.6 °F - 53.8 °F 73% 29.91 in 10.0 mi South 9.2 mph - N/A   Overcast